Location: Roanoke
(37.2710°N, 79.9420°W)
Time: 21:46:36
(UTC-05:00)

S-56A Canister/Altair - Pass Details

Date: 22 November 2019
Orbit: 632 x 2500 km, 38.9° (Epoch: 14 December)

Event Time Altitude Azimuth Distance (km) Brightness Sun altitude
Rises 12:26:42 0° 186° (S) 6,145 13.3 32.3°
Reaches altitude 10° 12:33:20 10° 167° (SSE) 5,000 12.9 32.2°
Maximum altitude 12:40:22 16° 137° (SE) 4,260 12.0 32.0°
Drops below altitude 10° 12:46:35 10° 106° (ESE) 4,362 11.5 31.8°
Sets 12:51:34 0° 86° (E) 5,001 11.5 31.5°
